cover

Sian, AG Fernandez - Kinetic Energy (Original Mix)

Get it on iTunes

Trackname / Key / BPM / Publish dateArtists, Remixers / Label
102 bpm, 10A / B minor, 2017-04-10, Hip-Hop,  1  20

Tracks in release Capital Crimewave

#Trackname / Key / BPM / Publish dateArtists, Remixers / Label
1 85 bpm, 11A / F# minor, 2017-04-10, Techno,  2  20
2 130 bpm, 11A / F# minor, 2017-04-10, Hip-Hop,  1  20
3 96 bpm, 8A / A minor, 2017-04-10, Techno,  0  20
4 122 bpm, 11B / A major, 2017-04-10, Techno,  7  20
5 140 bpm, 8A / A minor, 2017-04-10, Hip-Hop,  0  20
6 121 bpm, 7B / F major, 2017-04-10, Techno,  7  20
7 102 bpm, 10A / B minor, 2017-04-10, Hip-Hop,  1  20
8 101 bpm, 11B / A major, 2017-04-10, Techno,  0  20
9 78 bpm, 9A / E minor, 2017-04-10, Hip-Hop,  0  20
10 114 bpm, 11A / F# minor, 2017-04-10, Electronica,  0  20
11 92 bpm, 8A / A minor, 2017-04-10, Hip-Hop,  0  20
12 118 bpm, 3B / Db major, 2017-04-10, Electronica,  0  20
13 120 bpm, 8A / A minor, 2017-04-10, Techno,  0  20
14 125 bpm, 3A / Bb minor, 2017-04-10, Techno,  1  20
15 129 bpm, 8A / A minor, 2017-04-10, Hip-Hop,  0  20
16 111 bpm, 7A / D minor, 2017-04-10, Techno,  0  20
17 115 bpm, 6B / Bb major, 2017-04-10, Techno,  1  20
18 125 bpm, 8A / A minor, 2017-04-10, Techno,  5  20
19 117 bpm, 7A / D minor, 2017-04-10, Techno,  2  20
20 97 bpm, 8A / A minor, 2017-04-10, Techno,  0  20

Recommendations

#Trackname / Key / BPM / Publish dateArtists, Remixers / Label
1 128 bpm, 8B / C major, 2017-02-13, Techno,  17  1   4
2 126 bpm, 10B / D major, 2017-04-17, Techno,  14  1   2
3 129 bpm, 8A / A minor, 2017-04-13, Techno,  13  1   3
4 121 bpm, 7B / F major, 2017-04-10, Techno,  7  1   20
5 126 bpm, 7A / D minor, 2017-04-07, Techno,  7  1   2
6 126 bpm, 11B / A major, 2017-03-24, Tech House,  5  1   2
7 101 bpm, 7A / D minor, 2017-04-17, Techno,  3  1   5
8 127 bpm, 11B / A major, 2017-04-17, Techno,  2  1   3
9 117 bpm, 7A / D minor, 2017-04-10, Techno,  2  1   20

Charts

ArtistTitleGenresPublish date
SianSian Capital Crime Wave chartTechno, Tech House, Hip-Hop2017-04-19
Please wait...